Regional Weather Roundup
Issued by NWS

Home | Current Version | Previous Version | Graphics & Text | Print | Product List | Glossary On
Versions: 1 2 3 4 5 6 7 8 9 10 11 12 13 14 15 16 17 18 19 20 21 22 23 24 25 26 27 28
000
ASUS45 KCYS 262210
RWRWY

WYOMING REGIONAL WEATHER ROUNDUP
NATIONAL WEATHER SERVICE CHEYENNE WY
400 PM MDT TUE JUL 26 2016

NOTE:  "FAIR" INDICATES FEW OR NO CLOUDS BELOW 12,000 FEET
WITH NO SIGNIFICANT WEATHER AND/OR OBSTRUCTIONS TO VISIBILITY.

WYZ001-262300-
YELLOWSTONE NATIONAL PARK

CITY           SKY/WX    TMP DP  RH WIND       PRES   REMARKS
LK YELLOWSTONE   N/A     76  23  14 VRB7      30.33F
W YELLOWSTONE  NOT AVBL

$$
WYZ002>013-054>058-071-098>099-262300-
NORTHERN WYOMING

CITY           SKY/WX    TMP DP  RH WIND       PRES   REMARKS
JACKSON        SUNNY     88  28  11 CALM      30.19F
CODY           FAIR      84  45  24 N12       30.13R
GREYBULL       FAIR      96  36  12 NW9G16    29.98F HX  91
WORLAND        FAIR      94  33  11 N9        30.01F
SHERIDAN       FAIR      85  47  26 NW7       30.06S
BUFFALO        FAIR      90  43  19 N13G18    30.12F
GILLETTE       FAIR      89  43  20 MISG      30.07F
HULETT         FAIR      88  50  27 E9        30.08S
NEWCASTLE      FAIR      88  45  22 S3        30.03F

$$
WYZ014>020-022>026-101>103-262300-
CENTRAL WYOMING

CITY           SKY/WX    TMP DP  RH WIND       PRES   REMARKS
BIG PINEY      FAIR      89  25  10 NW18G26   30.22F
PINEDALE       FAIR      84  25  11 N10       30.24F
DUBOIS         FAIR      84  21  10 N13G20    30.23F
LANDER         FAIR      91  35  13 N5        30.08F
RIVERTON       FAIR      91  32  12 E6        30.09F
CASPER         FAIR      93  34  12 N8        30.09F
DOUGLAS          N/A    N/A N/A N/A MISG      30.07F

$$
WYZ021-027>030-104>119-262300-
SOUTHERN WYOMING

CITY           SKY/WX    TMP DP  RH WIND       PRES   REMARKS
EVANSTON       FAIR      90  22   8 W23G32    30.24F
KEMMERER         N/A     84  23  10 W15G22    30.26S
FORT BRIDGER   FAIR      78  39  24 SE14      30.27F
ROCK SPRINGS   PTSUNNY   80  29  15 E8G30     30.27R
DIXON          FAIR      85  29  12 N8        30.25F
RAWLINS        FAIR      84  29  13 S32G46    30.21F
SARATOGA       FAIR      79  30  17 CALM      30.28S
LARAMIE        FAIR      84  18   8 NW15G23   30.25S
CHEYENNE       FAIR      86  42  21 E14G23    30.17F
TORRINGTON     FAIR      97  41  14 N7        29.99F HX  92
PINE BLUFFS    FAIR      82  34  17 E9G28     30.13F

$$




USA.gov is the U.S. government's official web portal to all federal, state and local government web resources and services.